Terminal Aerodrome Forecast
Issued by NWS Dodge City, KS

Home | Current Version | Previous Version | Text Only | Print | Product List | Glossary Off
Versions: 1 2 3 4 5 6 7 8 9 10 11 12 13 14 15 16 17 18 19 20 21 22 23 24 25 26 27 28

000
FTUS43 KDDC 222322
TAFDDC
TAF
KDDC 222322Z 2300/2324 17015G25KT P6SM SCT090 BKN200
     FM230100 16013KT P6SM SCT040 BKN090
     FM231500 18019G25KT P6SM BKN040=

USA.gov is the U.S. government's official web portal to all federal, state and local government web resources and services.